Location: Eaton Estates
(41.3089°N, 82.0057°W)
Time: 13:17:59
(UTC+00:00)

Cosmos 1869 - Pass Details

Date: 17 June 2021
Orbit: 518 x 562 km, 82.5° (Epoch: 26 July)

Event Time Altitude Azimuth Distance (km) Brightness Sun altitude
Rises 06:23:55 0° 352° (N) 2,764 8.0 -24.1°
Reaches altitude 10° 06:26:06 10° 352° (N) 1,862 6.9 -24.0°
Enters shadow 06:29:59 79° 355° (N) 576 3.3 -23.8°
